Startseite
Über Mich
AHP4
Galerie
Sehschlangen
Tourenbuch
Bookmarks
Elektronik
Bewertung
Geschichten
[Tagesmessung] [Jahreswerte] [Information]

Messwerte vom 15.01.2022

Die letzten Messwerte von 23:58:49 Uhr:
KategorieMesswert
Temperatur [°C]-2
Luftdruck [mBar]1008
Sonneneinstrahlung0
Wind [km/h]0 aus Südost
Niederschlag [l/m²]0
rel.Luftfeucht.96.6%
CO2 [ppm]701

Diagramme
Messwerte vom 15.01.2022
Tagesaggregation
KategorieMinimumMaximumSchnittSumme
Temperatur [°C]-262.2563
Luftdruck [mBar]100710161012.2167
Sonneneinstrahlung20960.1979
Wind [km/h]4
rF [%]96.696.696.6
Niederschlag [l/m²]0
CO2 [ppm]396740478.7
Einordnung alsFrosttag
Kalter Tag

Messungen an benachbarten Tagen: Zur Jahresaggregation 2022
Tabelle aller Messwerte
UhrzeitTemperatur [°C]Luftdruck [mBar]SonneWind [km/h]RichtungRegen [l/m²]rF [%]CO2 [ppm]
00:01:48 1 1015 0 0 W 0 96.6 498
00:04:48 1 1016 0 0 W 0 96.6 501
00:07:49 1 1016 0 0 SO 0 96.6 510
00:10:48 1 1016 0 0 SO 0 96.6 504
00:13:49 1 1016 0 0 SW 0 96.6 498
00:16:47 1 1015 0 0 SW 0 96.6 495
00:19:47 1 1016 0 0 SO 0 96.6 495
00:22:47 1 1015 0 0 SO 0 96.6 494
00:25:48 1 1016 0 0 SO 0 96.6 489
00:28:50 1 1016 0 0 SO 0 96.6 491
00:31:47 1 1016 0 0 SO 0 96.6 492
00:34:49 1 1015 0 0 NW 0 96.6 495
00:37:48 1 1016 0 0 NW 0 96.6 497
00:40:44 1 1015 0 1 W 0 96.6 486
00:43:46 2 1016 0 0 W 0 96.6 483
00:46:46 2 1016 0 0 NW 0 96.6 483
00:49:44 2 1016 0 1 W 0 96.6 483
00:52:46 2 1015 0 0 W 0 96.6 483
00:55:45 2 1015 0 0 W 0 96.6 478
00:58:45 2 1015 0 0 W 0 96.6 480
01:01:46 2 1016 0 0 S 0 96.6 472
01:04:45 2 1014 0 0 S 0 96.6 485
01:07:45 2 1016 0 0 S 0 96.6 484
01:10:46 2 1016 0 0 S 0 96.6 478
01:13:47 2 1016 0 0 S 0 96.6 483
01:16:46 2 1016 0 0 S 0 96.6 490
01:19:45 2 1016 0 0 S 0 96.6 489
01:22:46 2 1015 0 0 S 0 96.6 487
01:25:46 2 1015 0 0 S 0 96.6 476
01:28:46 2 1015 0 0 S 0 96.6 474
01:31:46 2 1016 0 0 S 0 96.6 480
01:34:46 2 1015 0 0 S 0 96.6 486
01:37:48 2 1015 0 0 S 0 96.6 490
01:40:48 2 1015 0 0 NW 0 96.6 493
01:43:47 2 1016 0 0 NW 0 96.6 488
01:46:46 2 1015 0 0 NW 0 96.6 486
01:49:47 2 1016 0 0 W 0 96.6 478
01:52:46 2 1015 0 0 SW 0 96.6 480
01:55:48 2 1015 0 0 SW 0 96.6 483
01:58:46 2 1014 0 1 SW 0 96.6 480
02:01:48 2 1015 0 1 W 0 96.6 474
02:04:47 2 1015 0 0 S 0 96.6 466
02:07:47 2 1015 0 0 W 0 96.6 468
02:10:46 2 1015 0 1 W 0 96.6 468
02:13:48 2 1015 0 0 W 0 96.6 471
02:16:47 2 1014 0 0 W 0 96.6 471
02:19:49 2 1015 0 0 W 0 96.6 471
02:22:46 2 1015 0 0 W 0 96.6 474
02:25:45 2 1015 0 0 W 0 96.6 465
02:28:48 2 1015 0 0 W 0 96.6 469
02:31:46 2 1015 0 0 W 0 96.6 471
02:34:46 2 1015 0 0 W 0 96.6 469
02:37:46 2 1015 0 0 W 0 96.6 462
02:40:46 2 1016 0 0 W 0 96.6 460
02:43:46 2 1014 0 0 W 0 96.6 462
02:46:49 2 1014 0 0 W 0 96.6 469
02:49:45 2 1015 0 0 W 0 96.6 474
02:52:47 2 1015 0 0 SW 0 96.6 478
02:55:47 2 1015 0 0 SW 0 96.6 474
02:58:45 2 1015 0 0 SW 0 96.6 475
03:01:49 1 1014 0 0 SW 0 96.6 466
03:04:47 1 1014 0 0 SW 0 96.6 466
03:07:49 1 1014 0 0 SW 0 96.6 463
03:10:47 1 1014 0 0 SW 0 96.6 463
03:13:46 1 1014 0 0 SW 0 96.6 456
03:16:45 1 1013 0 0 SW 0 96.6 465
03:19:48 1 1015 0 0 SW 0 96.6 469
03:22:46 1 1014 0 0 N 0 96.6 466
03:25:47 1 1014 0 0 N 0 96.6 468
03:28:46 1 1014 0 0 SO 0 96.6 471
03:31:47 1 1014 0 0 NW 0 96.6 465
03:34:48 1 1014 0 0 NW 0 96.6 465
03:37:47 1 1014 0 0 NW 0 96.6 459
03:40:48 1 1014 0 0 NW 0 96.6 462
03:43:49 1 1014 0 0 NW 0 96.6 457
03:46:46 1 1014 0 0 NW 0 96.6 459
03:49:46 1 1014 0 0 NW 0 96.6 459
03:52:46 2 1014 0 0 NW 0 96.6 462
03:55:47 2 1014 0 0 NW 0 96.6 463
03:58:47 2 1014 0 0 NW 0 96.6 473
04:01:46 2 1015 0 0 NW 0 96.6 471
04:04:46 2 1014 0 0 NW 0 96.6 465
04:07:47 2 1014 0 0 NW 0 96.6 459
04:10:45 2 1014 0 0 S 0 96.6 456
04:13:48 2 1013 0 0 NW 0 96.6 463
04:16:49 2 1014 0 0 NW 0 96.6 469
04:19:47 2 1014 0 0 NW 0 96.6 472
04:22:48 2 1014 0 0 NW 0 96.6 468
04:25:48 2 1013 0 0 NW 0 96.6 460
04:28:46 2 1014 0 0 NW 0 96.6 463
04:31:48 2 1014 0 0 SO 0 96.6 463
04:34:46 2 1013 0 0 SW 0 96.6 460
04:37:45 2 1014 0 0 SW 0 96.6 459
04:40:48 2 1014 0 0 SW 0 96.6 460
04:43:47 2 1014 0 0 SW 0 96.6 457
04:46:45 2 1014 0 0 SW 0 96.6 457
04:49:49 2 1013 0 0 SW 0 96.6 451
04:52:46 2 1014 0 0 SW 0 96.6 456
04:55:46 2 1013 0 0 SW 0 96.6 451
04:58:47 2 1014 0 0 SW 0 96.6 454
05:01:45 2 1014 0 0 SW 0 96.6 451
05:04:48 2 1014 0 0 SW 0 96.6 457
05:07:45 2 1013 0 0 S 0 96.6 462
05:10:46 2 1014 0 0 S 0 96.6 474
05:13:45 2 1013 0 0 S 0 96.6 477
05:16:46 2 1013 0 0 S 0 96.6 471
05:19:48 2 1014 0 0 S 0 96.6 469
05:22:45 2 1013 0 0 S 0 96.6 465
05:25:47 2 1014 0 0 S 0 96.6 463
05:28:44 2 1014 0 0 S 0 96.6 457
05:31:47 2 1013 0 0 S 0 96.6 456
05:34:45 2 1014 0 0 S 0 96.6 448
05:37:45 2 1013 0 0 S 0 96.6 450
05:40:45 2 1013 0 0 N 0 96.6 462
05:43:47 2 1013 0 0 SW 0 96.6 466
05:46:46 2 1013 0 0 SW 0 96.6 466
05:49:47 2 1013 0 1 NW 0 96.6 460
05:52:50 2 1013 0 0 NW 0 96.6 462
05:55:46 2 1013 0 0 W 0 96.6 456
05:58:47 2 1013 0 0 W 0 96.6 454
06:01:46 2 1013 0 1 W 0 96.6 451
06:04:45 2 1013 0 0 O 0 96.6 454
06:07:49 2 1013 0 1 NW 0 96.6 459
06:10:50 2 1013 0 0 NW 0 96.6 465
06:13:46 2 1013 0 0 NW 0 96.6 468
06:16:48 2 1014 0 0 NW 0 96.6 462
06:19:48 2 1013 0 0 NW 0 96.6 459
06:22:49 2 1013 0 1 NW 0 96.6 451
06:25:47 2 1014 0 0 NW 0 96.6 454
06:28:47 2 1013 0 0 NW 0 96.6 454
06:31:46 2 1013 0 0 NW 0 96.6 454
06:34:50 2 1013 0 0 NW 0 96.6 454
06:37:48 2 1013 0 0 NW 0 96.6 460
06:40:49 2 1014 0 0 NW 0 96.6 459
06:43:47 2 1014 0 0 NW 0 96.6 460
06:46:48 2 1013 0 0 SW 0 96.6 451
06:49:47 2 1013 0 0 SW 0 96.6 453
06:52:46 2 1013 0 0 SW 0 96.6 453
06:55:45 2 1013 0 1 W 0 96.6 471
06:58:46 2 1014 0 0 SW 0 96.6 477
07:01:48 2 1013 0 0 W 0 96.6 478
07:04:47 2 1013 0 0 W 0 96.6 471
07:07:45 2 1013 0 0 W 0 96.6 474
07:10:47 2 1013 0 0 W 0 96.6 492
07:13:47 2 1013 0 0 W 0 96.6 497
07:16:45 2 1014 0 0 W 0 96.6 501
07:19:46 2 1013 0 0 W 0 96.6 497
07:22:45 2 1013 0 0 W 0 96.6 503
07:25:47 2 1014 0 0 SO 0 96.6 513
07:28:45 2 1013 0 0 O 0 96.6 518
07:31:46 2 1014 0 0 SO 0 96.6 519
07:34:47 2 1013 0 0 W 0 96.6 507
07:37:47 2 1014 0 0 W 0 96.6 514
07:40:46 2 1013 0 0 O 0 96.6 521
07:43:49 2 1013 0 0 O 0 96.6 530
07:46:46 2 1013 0 0 O 0 96.6 533
07:49:47 2 1013 3 0 N 0 96.6 533
07:52:45 2 1013 5 0 SO 0 96.6 527
07:55:45 2 1013 7 0 N 0 96.6 524
07:58:45 2 1013 10 0 N 0 96.6 524
08:01:46 2 1013 15 0 N 0 96.6 521
08:04:49 2 1013 20 0 N 0 96.6 521
08:07:46 2 1013 27 0 N 0 96.6 507
08:10:46 2 1013 34 0 N 0 96.6 504
08:13:46 2 1013 43 0 N 0 96.6 504
08:16:47 2 1013 49 0 N 0 96.6 507
08:19:48 2 1013 56 0 N 0 96.6 494
08:22:46 2 1013 67 0 N 0 96.6 491
08:25:46 2 1013 78 0 S 0 96.6 491
08:28:48 2 1013 82 0 O 0 96.6 490
08:31:46 2 1013 95 0 O 0 96.6 486
08:34:47 2 1013 100 0 O 0 96.6 480
08:37:46 2 1014 107 0 N 0 96.6 471
08:40:45 2 1013 113 0 N 0 96.6 471
08:43:46 2 1014 118 0 N 0 96.6 469
08:46:46 2 1014 120 0 N 0 96.6 459
08:49:48 2 1014 129 0 S 0 96.6 451
08:52:48 2 1013 136 0 S 0 96.6 448
08:55:47 2 1014 139 0 S 0 96.6 444
08:58:47 2 1014 143 0 S 0 96.6 451
09:01:49 2 1013 146 0 S 0 96.6 451
09:04:46 2 1013 151 0 S 0 96.6 443
09:07:45 2 1013 154 0 S 0 96.6 441
09:10:49 2 1014 159 0 S 0 96.6 430
09:13:48 2 1013 162 0 S 0 96.6 427
09:16:47 2 1013 162 0 S 0 96.6 424
09:19:47 2 1013 163 0 S 0 96.6 425
09:22:48 2 1013 166 0 S 0 96.6 413
09:25:47 2 1014 169 0 S 0 96.6 407
09:28:49 2 1014 173 0 SO 0 96.6 404
09:31:47 2 1014 171 0 SO 0 96.6 407
09:34:49 3 1013 172 0 SO 0 96.6 413
09:37:49 3 1013 179 0 SO 0 96.6 410
09:40:49 3 1014 178 0 SO 0 96.6 413
09:43:48 3 1014 178 0 SO 0 96.6 407
09:46:48 3 1014 182 0 SO 0 96.6 404
09:49:47 3 1013 184 0 SO 0 96.6 407
09:52:49 3 1013 186 0 S 0 96.6 404
09:55:47 3 1014 183 0 S 0 96.6 407
09:58:45 3 1014 183 0 SO 0 96.6 407
10:01:47 3 1013 186 0 S 0 96.6 407
10:04:47 3 1014 185 0 S 0 96.6 404
10:07:47 3 1013 189 0 S 0 96.6 406
10:10:49 3 1013 191 0 SO 0 96.6 407
10:13:48 3 1013 192 0 SO 0 96.6 404
10:16:48 3 1013 191 0 SO 0 96.6 406
10:19:48 3 1013 195 0 S 0 96.6 407
10:22:48 3 1013 196 1 S 0 96.6 404
10:25:49 4 1013 196 1 SO 0 96.6 404
10:28:47 4 1013 198 0 SO 0 96.6 406
10:31:49 4 1013 198 0 NO 0 96.6 403
10:34:48 4 1013 199 0 SO 0 96.6 401
10:37:48 4 1013 202 0 NO 0 96.6 407
10:40:47 4 1013 202 0 N 0 96.6 407
10:43:46 4 1014 200 0 O 0 96.6 404
10:46:46 4 1013 200 0 O 0 96.6 404
10:49:51 4 1014 203 0 SO 0 96.6 407
10:52:48 4 1013 204 1 SO 0 96.6 404
10:55:47 4 1013 201 0 O 0 96.6 407
10:58:49 4 1013 205 0 O 0 96.6 404
11:01:47 4 1013 205 0 S 0 96.6 407
11:04:48 4 1013 206 0 SO 0 96.6 407
11:07:48 4 1013 205 1 SO 0 96.6 404
11:10:48 4 1013 204 0 SO 0 96.6 404
11:13:47 5 1014 203 2 SO 0 96.6 403
11:16:47 5 1014 204 0 S 0 96.6 404
11:19:46 5 1014 205 0 O 0 96.6 408
11:22:50 5 1013 203 0 SO 0 96.6 407
11:25:48 5 1013 203 0 SO 0 96.6 407
11:28:48 5 1013 203 0 SO 0 96.6 404
11:31:46 5 1013 204 0 SO 0 96.6 404
11:34:47 5 1013 203 0 SO 0 96.6 407
11:37:49 5 1013 203 0 SO 0 96.6 407
11:40:48 5 1013 204 0 SO 0 96.6 404
11:43:48 5 1013 204 1 SO 0 96.6 406
11:46:48 5 1013 205 0 SO 0 96.6 405
11:49:55 5 1013 205 0 SO 0 96.6 404
11:52:45 5 1013 203 2 N 0 96.6 406
11:55:49 5 1013 204 0 SO 0 96.6 404
11:58:49 5 1013 206 0 SO 0 96.6 407
12:01:49 5 1013 206 0 O 0 96.6 407
12:04:47 5 1013 204 0 O 0 96.6 407
12:07:48 5 1013 205 0 SO 0 96.6 409
12:10:49 5 1013 207 0 O 0 96.6 403
12:13:47 5 1013 207 0 O 0 96.6 404
12:16:48 5 1013 206 2 SO 0 96.6 404
12:19:47 6 1013 206 0 S 0 96.6 401
12:22:46 6 1013 208 0 S 0 96.6 407
12:25:49 6 1013 208 0 SO 0 96.6 396
12:28:50 6 1013 207 2 SO 0 96.6 405
12:31:48 6 1013 208 1 SO 0 96.6 407
12:34:47 6 1013 209 0 O 0 96.6 406
12:37:51 6 1013 208 2 SO 0 96.6 404
12:40:47 6 1013 207 0 SO 0 96.6 404
12:43:47 6 1013 206 0 S 0 96.6 407
12:46:47 6 1013 205 0 N 0 96.6 404
12:49:48 6 1013 202 0 NO 0 96.6 404
12:52:48 6 1013 201 0 SO 0 96.6 404
12:55:47 6 1013 201 1 SO 0 96.6 404
12:58:48 6 1013 201 0 SO 0 96.6 406
13:01:47 6 1013 201 0 NO 0 96.6 407
13:04:46 6 1013 200 0 O 0 96.6 404
13:07:49 6 1013 200 0 SO 0 96.6 407
13:10:48 6 1013 198 2 SO 0 96.6 406
13:13:47 6 1013 199 0 SW 0 96.6 407
13:16:47 6 1013 198 0 S 0 96.6 404
13:19:47 6 1013 197 1 S 0 96.6 402
13:22:45 6 1013 196 4 O 0 96.6 407
13:25:45 6 1013 195 0 O 0 96.6 407
13:28:49 5 1013 194 0 NO 0 96.6 407
13:31:47 5 1013 194 0 O 0 96.6 407
13:34:46 5 1013 192 2 S 0 96.6 407
13:37:47 5 1013 190 2 S 0 96.6 407
13:40:46 5 1013 189 1 S 0 96.6 404
13:43:48 5 1013 191 0 SO 0 96.6 407
13:46:47 5 1013 186 1 SO 0 96.6 407
13:49:46 5 1013 186 0 S 0 96.6 407
13:52:47 5 1013 186 0 SO 0 96.6 404
13:55:49 5 1013 185 1 SO 0 96.6 407
13:58:48 5 1013 186 2 SO 0 96.6 406
14:01:49 5 1013 185 0 SO 0 96.6 404
14:04:49 5 1013 186 2 SO 0 96.6 406
14:07:46 5 1013 186 2 SO 0 96.6 407
14:10:47 5 1012 186 3 SO 0 96.6 407
14:13:50 5 1012 187 2 SO 0 96.6 407
14:16:49 5 1012 185 0 SO 0 96.6 407
14:19:49 5 1012 183 3 SO 0 96.6 407
14:22:47 5 1012 183 1 SO 0 96.6 407
14:25:47 5 1012 185 1 SO 0 96.6 407
14:28:46 5 1012 181 0 S 0 96.6 407
14:31:48 5 1012 177 0 O 0 96.6 406
14:34:46 5 1012 175 1 O 0 96.6 407
14:37:49 5 1013 175 0 SO 0 96.6 407
14:40:47 5 1012 177 0 SO 0 96.6 404
14:43:47 5 1012 176 2 SO 0 96.6 407
14:46:47 5 1012 177 1 SO 0 96.6 407
14:49:47 5 1012 180 0 SO 0 96.6 404
14:52:46 5 1012 183 0 SO 0 96.6 403
14:55:48 5 1012 184 2 SO 0 96.6 405
14:58:49 5 1012 184 2 SO 0 96.6 404
15:01:47 5 1011 182 0 SO 0 96.6 404
15:04:48 5 1012 180 0 N 0 96.6 404
15:07:49 5 1011 175 1 SO 0 96.6 404
15:10:46 5 1011 171 0 N 0 96.6 404
15:13:50 5 1012 169 0 O 0 96.6 407
15:16:47 5 1012 164 0 O 0 96.6 406
15:19:49 5 1012 163 0 NW 0 96.6 404
15:22:45 5 1012 161 1 O 0 96.6 407
15:25:47 5 1011 160 0 SO 0 96.6 406
15:28:50 5 1012 158 0 SO 0 96.6 404
15:31:47 5 1012 157 0 SO 0 96.6 403
15:34:47 5 1010 154 0 SO 0 96.6 406
15:37:45 5 1011 151 0 S 0 96.6 404
15:40:48 5 1012 142 1 SO 0 96.6 404
15:43:48 5 1012 137 0 SO 0 96.6 407
15:46:47 5 1011 133 0 SO 0 96.6 407
15:49:47 5 1011 129 0 SO 0 96.6 407
15:52:49 5 1011 123 0 NW 0 96.6 409
15:55:48 5 1012 118 0 SO 0 96.6 404
15:58:46 5 1011 114 0 SO 0 96.6 407
16:01:46 5 1010 111 0 SO 0 96.6 407
16:04:50 5 1011 108 0 SO 0 96.6 404
16:07:46 4 1011 104 2 S 0 96.6 404
16:10:48 4 1012 98 0 SO 0 96.6 407
16:13:49 4 1012 92 0 SO 0 96.6 407
16:16:47 4 1011 85 1 SO 0 96.6 405
16:19:47 4 1011 81 0 SO 0 96.6 404
16:22:44 4 1011 73 0 S 0 96.6 406
16:25:47 4 1011 64 0 NO 0 96.6 406
16:28:44 4 1011 56 0 S 0 96.6 406
16:31:47 4 1011 49 0 SO 0 96.6 407
16:34:48 4 1011 42 1 SO 0 96.6 404
16:37:49 4 1011 36 0 SO 0 96.6 404
16:40:47 4 1011 29 0 SO 0 96.6 407
16:43:45 4 1011 25 0 SO 0 96.6 405
16:46:48 4 1011 23 0 SW 0 96.6 407
16:49:45 4 1010 18 3 S 0 96.6 401
16:52:47 4 1010 14 1 SO 0 96.6 407
16:55:48 4 1010 10 0 SO 0 96.6 407
16:58:46 4 1010 7 0 S 0 96.6 407
17:01:45 4 1011 4 1 S 0 96.6 407
17:04:45 4 1011 3 0 S 0 96.6 404
17:07:47 4 1010 0 2 SO 0 96.6 405
17:10:48 4 1010 0 0 SO 0 96.6 404
17:13:47 4 1010 0 1 S 0 96.6 407
17:16:44 4 1010 0 1 SO 0 96.6 407
17:19:46 4 1010 0 3 SO 0 96.6 404
17:22:47 4 1010 0 2 SO 0 96.6 406
17:25:44 4 1010 0 2 S 0 96.6 407
17:28:48 4 1010 0 2 SW 0 96.6 407
17:31:46 4 1011 0 2 SO 0 96.6 403
17:34:47 4 1010 0 2 SO 0 96.6 407
17:37:47 4 1011 0 4 SO 0 96.6 406
17:40:49 4 1010 0 1 SO 0 96.6 404
17:43:47 4 1010 0 0 SO 0 96.6 404
17:46:47 3 1010 0 2 SW 0 96.6 404
17:49:49 3 1010 0 0 SO 0 96.6 407
17:52:46 3 1010 0 0 S 0 96.6 404
17:55:47 3 1010 0 0 SO 0 96.6 406
17:58:47 3 1010 0 0 SO 0 96.6 406
18:01:48 3 1010 0 0 SO 0 96.6 406
18:04:48 3 1010 0 0 SO 0 96.6 404
18:07:47 3 1010 0 0 N 0 96.6 404
18:10:49 3 1010 0 0 SW 0 96.6 406
18:13:47 3 1010 0 0 SW 0 96.6 402
18:16:46 2 1010 0 0 SO 0 96.6 407
18:19:48 2 1010 0 0 NO 0 96.6 407
18:22:49 2 1010 0 0 SO 0 96.6 404
18:25:47 2 1010 0 0 SO 0 96.6 403
18:28:48 2 1010 0 0 SO 0 96.6 406
18:31:46 2 1010 0 0 SO 0 96.6 404
18:34:48 2 1009 0 0 SO 0 96.6 404
18:37:47 2 1010 0 0 SO 0 96.6 407
18:40:48 2 1010 0 0 SO 0 96.6 407
18:43:46 2 1010 0 0 SO 0 96.6 407
18:46:46 2 1010 0 0 SO 0 96.6 407
18:49:47 1 1010 0 0 SO 0 96.6 407
18:52:45 1 1010 0 0 SO 0 96.6 404
18:55:46 1 1010 0 0 O 0 96.6 407
18:58:45 1 1010 0 0 O 0 96.6 407
19:01:46 1 1010 0 0 O 0 96.6 404
19:04:47 1 1010 0 0 O 0 96.6 404
19:07:44 1 1010 0 0 O 0 96.6 404
19:10:45 1 1010 0 0 O 0 96.6 407
19:13:45 1 1010 0 0 O 0 96.6 407
19:16:46 1 1010 0 0 O 0 96.6 407
19:19:46 1 1010 0 0 O 0 96.6 404
19:22:45 1 1010 0 0 O 0 96.6 413
19:25:47 1 1010 0 0 O 0 96.6 428
19:28:47 0 1010 0 0 O 0 96.6 430
19:31:46 0 1010 0 0 O 0 96.6 437
19:34:46 0 1010 0 0 O 0 96.6 438
19:37:47 0 1010 0 0 O 0 96.6 445
19:40:45 0 1010 0 0 O 0 96.6 439
19:43:46 0 1010 0 0 O 0 96.6 438
19:46:45 0 1009 0 0 O 0 96.6 439
19:49:47 0 1009 0 0 O 0 96.6 436
19:52:47 0 1010 0 0 NW 0 96.6 448
19:55:49 0 1010 0 0 NW 0 96.6 442
19:58:47 0 1010 0 0 O 0 96.6 460
20:01:47 0 1010 0 0 O 0 96.6 462
20:04:47 0 1010 0 0 O 0 96.6 469
20:07:47 0 1010 0 0 O 0 96.6 474
20:10:47 0 1010 0 0 O 0 96.6 470
20:13:48 0 1010 0 0 O 0 96.6 470
20:16:44 0 1011 0 0 O 0 96.6 475
20:19:44 0 1010 0 0 O 0 96.6 480
20:22:47 0 1010 0 0 O 0 96.6 477
20:25:46 0 1010 0 0 O 0 96.6 483
20:28:46 0 1010 0 0 O 0 96.6 480
20:31:48 0 1010 0 0 O 0 96.6 480
20:34:48 0 1010 0 0 O 0 96.6 478
20:37:45 -1 1009 0 0 O 0 96.6 477
20:40:47 -1 1010 0 0 O 0 96.6 688
20:43:47 -1 1010 0 0 O 0 96.6 694
20:46:47 -1 1010 0 0 O 0 96.6 686
20:49:48 -1 1010 0 0 O 0 96.6 687
20:52:48 -1 1010 0 0 O 0 96.6 694
20:55:47 -1 1009 0 0 O 0 96.6 702
20:58:45 -1 1009 0 0 O 0 96.6 704
21:01:49 -1 1009 0 0 O 0 96.6 718
21:04:47 -1 1009 0 0 O 0 96.6 720
21:07:46 -1 1009 0 0 O 0 96.6 718
21:10:45 -1 1009 0 0 O 0 96.6 708
21:13:46 -1 1009 0 0 O 0 96.6 711
21:16:45 -1 1010 0 0 O 0 96.6 718
21:19:47 -1 1009 0 0 O 0 96.6 709
21:22:46 -1 1009 0 0 O 0 96.6 705
21:25:46 -1 1009 0 0 O 0 96.6 706
21:28:48 -1 1009 0 0 O 0 96.6 711
21:31:48 -1 1009 0 0 O 0 96.6 723
21:34:46 -1 1009 0 0 O 0 96.6 718
21:37:48 -1 1010 0 0 O 0 96.6 723
21:40:46 -1 1010 0 0 O 0 96.6 717
21:43:47 -1 1009 0 0 O 0 96.6 720
21:46:46 -1 1009 0 0 O 0 96.6 720
21:49:47 -1 1009 0 0 O 0 96.6 726
21:52:46 -1 1009 0 0 O 0 96.6 723
21:55:46 -1 1009 0 0 O 0 96.6 723
21:58:48 -1 1010 0 0 O 0 96.6 715
22:01:48 -1 1009 0 0 O 0 96.6 721
22:04:46 -1 1010 0 0 O 0 96.6 731
22:07:47 -1 1009 0 0 O 0 96.6 724
22:10:47 -1 1009 0 0 O 0 96.6 718
22:13:47 -1 1009 0 0 O 0 96.6 726
22:16:46 -1 1008 0 0 O 0 96.6 726
22:19:47 -1 1009 0 0 O 0 96.6 723
22:22:48 -1 1009 0 0 O 0 96.6 726
22:25:45 -1 1009 0 0 O 0 96.6 738
22:28:45 -1 1009 0 0 O 0 96.6 740
22:31:47 -2 1010 0 0 O 0 96.6 731
22:34:47 -2 1009 0 0 O 0 96.6 718
22:37:46 -2 1009 0 0 O 0 96.6 720
22:40:46 -2 1009 0 0 O 0 96.6 725
22:43:47 -2 1008 0 0 O 0 96.6 734
22:46:47 -2 1009 0 0 O 0 96.6 716
22:49:46 -2 1009 0 0 O 0 96.6 720
22:52:47 -1 1008 0 0 O 0 96.6 720
22:55:45 -1 1008 0 0 N 0 96.6 736
22:58:46 -1 1009 0 0 N 0 96.6 734
23:01:46 -1 1008 0 0 N 0 96.6 735
23:04:48 -1 1008 0 0 N 0 96.6 734
23:07:47 -2 1008 0 0 N 0 96.6 732
23:10:45 -2 1009 0 0 N 0 96.6 735
23:13:47 -2 1009 0 0 N 0 96.6 735
23:16:49 -2 1009 0 0 SO 0 96.6 734
23:19:48 -2 1008 0 0 SO 0 96.6 727
23:22:48 -2 1008 0 0 SO 0 96.6 723
23:25:47 -2 1008 0 0 SO 0 96.6 732
23:28:50 -2 1008 0 0 SO 0 96.6 736
23:31:49 -2 1008 0 0 SO 0 96.6 729
23:34:47 -2 1009 0 0 SO 0 96.6 720
23:37:46 -2 1009 0 0 SO 0 96.6 715
23:40:47 -2 1008 0 0 SO 0 96.6 715
23:43:46 -2 1008 0 0 SO 0 96.6 705
23:46:49 -2 1008 0 0 SO 0 96.6 702
23:49:50 -2 1008 0 0 SO 0 96.6 707
23:52:47 -2 1007 0 0 SO 0 96.6 706
23:55:49 -2 1007 0 0 SO 0 96.6 702
23:58:49 -2 1008 0 0 SO 0 96.6 701

Letzte Änderung : 04-Jan-2022
Copyright Jens Köhler, Wolfsburg, Obere Dorfstraße 10d